CW9436 Weather Reports


time (UTC)temp
C
wind
direction
speed
KPH
gust
KPH
rain 1hr
cm
rain 24hr
cm
rain mn
cm
humidity
%
barometer
mb
20260507212521 8 0 0.0 4.8 0.00 0.03 0.03 89 1015.3
20260507212021 9 0 0.0 4.8 0.00 0.03 0.03 88 1015.2
20260507211536 9 0 0.0 4.8 0.00 0.03 0.03 88 1015.2
20260507211025 9 0 0.0 3.2 0.00 0.03 0.03 88 1015.2
20260507210526 9 149 0.0 4.8 0.00 0.03 0.03 87 1015.1
20260507210039 10 0 0.0 4.8 0.00 0.03 0.03 87 1015.1
20260507205522 10 0 1.6 4.8 0.00 0.03 0.03 87 1015.0
20260507205021 10 0 1.6 4.8 0.00 0.03 0.03 87 1014.8
20260507204542 10 149 1.6 4.8 0.00 0.03 0.03 87 1014.8
20260507204022 10 149 1.6 4.8 0.00 0.03 0.03 87 1014.8
20260507203522 10 149 1.6 4.8 0.00 0.03 0.03 86 1014.7
20260507203108 10 0 0.0 3.2 0.00 0.03 0.03 86 1014.7
20260507202524 11 0 0.0 3.2 0.00 0.03 0.03 87 1014.8
20260507202021 11 0 0.0 3.2 0.00 0.03 0.03 87 1014.6
20260507201540 11 149 0.0 3.2 0.00 0.03 0.03 86 1014.6
20260507201019 11 0 0.0 4.8 0.00 0.03 0.03 86 1014.6
20260507200526 11 149 1.6 6.4 0.00 0.03 0.03 86 1014.5
20260507200037 11 149 3.2 6.4 0.00 0.03 0.03 86 1014.5
20260507195521 11 149 0.0 9.7 0.00 0.03 0.03 87 1014.4
20260507195019 11 149 3.2 9.7 0.00 0.03 0.03 87 1014.4
20260507194548 11 149 3.2 8.0 0.00 0.03 0.03 87 1014.3
20260507194026 11 149 1.6 8.0 0.00 0.03 0.03 87 1014.3
20260507193522 11 149 1.6 8.0 0.00 0.03 0.03 86 1014.3
20260507193042 11 153 1.6 8.0 0.00 0.03 0.03 86 1014.3
20260507192521 11 153 1.6 9.7 0.00 0.03 0.03 86 1014.2
20260507192021 12 153 3.2 9.7 0.00 0.03 0.03 87 1014.3
20260507191545 12 158 3.2 9.7 0.00 0.03 0.03 87 1014.2
20260507191021 12 160 3.2 6.4 0.00 0.03 0.03 87 1014.3
20260507190521 12 0 0.0 1.6 0.00 0.03 0.03 86 1014.3
20260507190046 12 0 0.0 3.2 0.00 0.03 0.03 86 1014.2
20260507185521 12 0 0.0 3.2 0.00 0.03 0.03 86 1014.2
20260507185021 12 0 0.0 0.0 0.00 0.03 0.03 87 1014.2
20260507184535 12 0 0.0 0.0 0.03 0.03 0.03 87 1014.1
20260507184021 12 0 0.0 0.0 0.03 0.03 0.03 86 1014.0
20260507183521 12 0 0.0 0.0 0.03 0.03 0.03 86 1014.0
20260507183041 12 0 0.0 0.0 0.03 0.03 0.03 86 1014.0
20260507182522 12 0 0.0 0.0 0.03 0.03 0.03 86 1014.0
20260507182020 12 0 0.0 3.2 0.03 0.03 0.03 85 1013.9
20260507181543 12 0 0.0 3.2 0.03 0.03 0.03 84 1014.0
20260507181022 12 160 0.0 4.8 0.03 0.03 0.03 83 1013.9
20260507180520 12 0 0.0 4.8 0.03 0.03 0.03 82 1013.9
20260507180042 12 160 1.6 9.7 0.00 0.00 0.00 80 1013.8
20260507175522 12 161 1.6 9.7 0.00 0.00 0.00 78 1013.8
20260507175023 13 161 3.2 9.7 0.00 0.00 0.00 77 1013.8
20260507174543 13 154 0.0 6.4 0.00 0.00 0.00 75 1013.9
20260507174024 13 154 3.2 8.0 0.00 0.00 0.00 74 1013.8
20260507173519 13 0 1.6 8.0 0.00 0.00 0.00 72 1013.8
20260507173058 13 154 3.2 8.0 0.00 0.00 0.00 71 1013.8
20260507172518 13 154 4.8 8.0 0.00 0.00 0.00 70 1013.8
20260507172020 13 138 1.6 8.0 0.00 0.00 0.00 68 1013.7
20260507171543 13 138 3.2 8.0 0.00 0.00 0.00 68 1013.7
20260507171022 13 139 3.2 12.9 0.00 0.00 0.00 68 1013.7
20260507170521 13 139 3.2 12.9 0.00 0.00 0.00 68 1013.7
20260507170042 13 138 3.2 14.5 0.00 0.00 0.00 67 1013.7
20260507165522 13 143 4.8 14.5 0.00 0.00 0.00 67 1013.8
20260507165022 14 143 4.8 16.1 0.00 0.00 0.00 68 1013.7
20260507164541 14 151 4.8 16.1 0.00 0.00 0.00 67 1013.8
20260507164023 14 158 4.8 16.1 0.00 0.00 0.00 67 1013.8
20260507163524 14 148 6.4 16.1 0.00 0.00 0.00 66 1013.7
20260507163040 14 147 3.2 16.1 0.00 0.00 0.00 66 1013.7
20260507162528 14 133 6.4 16.1 0.00 0.00 0.00 66 1013.7
20260507162020 14 138 6.4 16.1 0.00 0.00 0.00 66 1013.7
20260507161543 14 148 4.8 19.3 0.00 0.00 0.00 66 1013.7
20260507161020 14 147 4.8 19.3 0.00 0.00 0.00 66 1013.8
20260507160518 14 155 8.0 19.3 0.00 0.00 0.00 65 1013.7
20260507160038 15 153 8.0 19.3 0.00 0.00 0.00 65 1013.7
20260507155517 15 154 9.7 19.3 0.00 0.00 0.00 65 1013.8
20260507155022 15 180 4.8 17.7 0.00 0.00 0.00 64 1013.8
20260507154541 15 175 8.0 20.9 0.00 0.00 0.00 63 1013.8
20260507154021 15 175 8.0 20.9 0.00 0.00 0.00 63 1013.8
20260507153525 15 156 9.7 19.3 0.00 0.00 0.00 63 1013.8
20260507153041 15 162 8.0 17.7 0.00 0.00 0.00 62 1013.8
20260507152523 16 160 3.2 24.1 0.00 0.00 0.00 63 1013.8
20260507152031 16 116 8.0 24.1 0.00 0.00 0.00 60 1013.9
20260507151542 16 110 6.4 19.3 0.00 0.00 0.00 62 1013.8
20260507151020 15 108 9.7 19.3 0.00 0.00 0.00 67 1013.7
20260507150523 15 139 9.7 19.3 0.00 0.00 0.00 69 1013.8
20260507150043 14 147 4.8 17.7 0.00 0.00 0.00 67 1013.8
20260507145520 14 122 4.8 14.5 0.00 0.00 0.00 67 1013.9
20260507145025 14 129 4.8 17.7 0.00 0.00 0.00 68 1014.0
20260507144541 14 135 6.4 17.7 0.00 0.00 0.00 65 1014.1
20260507144021 14 150 4.8 17.7 0.00 0.00 0.00 67 1014.0
20260507143521 14 147 4.8 14.5 0.00 0.00 0.00 66 1014.1
20260507143054 15 146 4.8 14.5 0.00 0.00 0.00 65 1014.2
20260507142518 15 144 6.4 14.5 0.00 0.00 0.00 64 1014.3
20260507142027 15 126 6.4 16.1 0.00 0.00 0.00 63 1014.3
20260507141550 15 146 6.4 20.9 0.00 0.00 0.00 62 1014.3
20260507141020 15 156 6.4 25.7 0.00 0.00 0.00 61 1014.4
20260507140521 15 155 11.3 25.7 0.00 0.00 0.00 61 1014.3
20260507140039 16 143 8.0 17.7 0.00 0.00 0.00 63 1014.4
20260507135519 16 143 8.0 24.1 0.00 0.00 0.00 62 1014.4
20260507135019 16 118 11.3 24.1 0.00 0.00 0.00 62 1014.4
20260507134536 16 133 8.0 22.5 0.00 0.00 0.00 61 1014.5
20260507134017 16 155 11.3 22.5 0.00 0.00 0.00 61 1014.4
20260507133521 17 162 8.0 22.5 0.00 0.00 0.00 61 1014.5
20260507133109 17 113 8.0 22.5 0.00 0.00 0.00 61 1014.5
20260507132523 17 133 6.4 20.9 0.00 0.00 0.00 66 1014.6
20260507132020 16 139 9.7 20.9 0.00 0.00 0.00 66 1014.7
20260507131545 16 216 9.7 20.9 0.00 0.00 0.00 68 1014.6
20260507131311 15 140 8.0 19.3 0.00 0.00 0.00 67 1014.6
20260507130521 15 133 4.8 24.1 0.00 0.00 0.00 68 1014.6
20260507130053 15 145 9.7 24.1 0.00 0.00 0.00 67 1014.6
20260507125517 15 155 9.7 19.3 0.00 0.00 0.00 66 1014.7
20260507125017 15 164 4.8 22.5 0.00 0.00 0.00 67 1014.6
20260507124547 15 165 11.3 25.7 0.00 0.00 0.00 67 1014.8
20260507124018 15 133 12.9 25.7 0.00 0.00 0.00 68 1014.8
20260507123522 15 180 11.3 19.3 0.00 0.00 0.00 66 1014.6
20260507123044 15 149 9.7 20.9 0.00 0.00 0.00 68 1014.7
20260507122518 15 180 6.4 22.5 0.00 0.00 0.00 70 1014.9
20260507122019 14 156 6.4 24.1 0.00 0.00 0.00 70 1014.9
20260507121537 14 136 8.0 24.1 0.00 0.00 0.00 68 1014.9
20260507121047 14 145 11.3 24.1 0.00 0.00 0.00 67 1015.0
20260507120521 14 139 8.0 22.5 0.00 0.00 0.00 69 1015.0
20260507120041 13 212 9.7 22.5 0.00 0.00 0.00 67 1015.2
20260507115521 13 206 8.0 19.3 0.00 0.00 0.00 70 1015.2
20260507115022 13 197 8.0 17.7 0.00 0.00 0.00 68 1015.3
20260507114555 13 122 8.0 19.3 0.00 0.00 0.00 72 1015.3
20260507114021 13 142 6.4 19.3 0.00 0.00 0.00 70 1015.3
20260507113519 13 189 8.0 17.7 0.00 0.00 0.00 70 1015.3
20260507113041 13 151 6.4 19.3 0.00 0.00 0.00 72 1015.4
20260507112518 13 149 9.7 19.3 0.00 0.00 0.00 72 1015.3
20260507112022 13 125 8.0 22.5 0.00 0.00 0.00 73 1015.3
20260507111539 13 127 11.3 22.5 0.00 0.00 0.00 74 1015.3
20260507111021 12 120 9.7 19.3 0.00 0.00 0.00 75 1015.5
20260507110521 12 136 9.7 19.3 0.00 0.00 0.00 76 1015.4
20260507110042 12 160 8.0 20.9 0.00 0.00 0.00 75 1015.6
20260507105521 12 149 8.0 20.9 0.00 0.00 0.00 76 1015.6
20260507105021 12 139 8.0 19.3 0.00 0.00 0.00 77 1015.7
20260507104541 12 147 8.0 19.3 0.00 0.00 0.00 78 1015.7
20260507104021 11 126 4.8 17.7 0.00 0.00 0.00 80 1015.7
20260507103518 11 121 8.0 17.7 0.00 0.00 0.00 81 1015.8
20260507103048 11 141 8.0 17.7 0.00 0.00 0.00 80 1015.9
20260507102520 11 159 4.8 19.3 0.00 0.00 0.00 81 1015.8
20260507102018 10 131 8.0 19.3 0.00 0.00 0.00 82 1015.8
20260507101540 10 125 6.4 17.7 0.00 0.00 0.00 83 1015.8
20260507101019 10 113 11.3 17.7 0.00 0.00 0.00 83 1015.8
20260507100518 10 107 8.0 14.5 0.00 0.00 0.00 84 1015.8
20260507100039 10 119 8.0 17.7 0.00 0.00 0.00 83 1015.8
20260507095520 10 117 3.2 17.7 0.00 0.00 0.00 84 1015.8
20260507095018 10 137 4.8 16.1 0.00 0.00 0.00 85 1015.9
20260507094542 9 124 6.4 16.1 0.00 0.00 0.00 85 1015.9
20260507094025 9 131 3.2 16.1 0.00 0.00 0.00 86 1015.8
20260507093519 9 143 6.4 17.7 0.00 0.00 0.00 86 1015.9
20260507093041 9 127 6.4 17.7 0.00 0.00 0.00 86 1015.8
20260507092521 8 114 8.0 17.7 0.00 0.00 0.00 86 1015.8
20260507092017 8 122 8.0 17.7 0.00 0.00 0.00 87 1015.8
20260507091540 8 118 8.0 16.1 0.00 0.00 0.00 87 1015.8
20260507091020 8 140 6.4 17.7 0.00 0.00 0.00 87 1015.9
20260507090522 8 141 8.0 19.3 0.00 0.00 0.00 87 1015.8
20260507090043 8 137 9.7 19.3 0.00 0.00 0.00 87 1015.8
20260507085522 8 114 8.0 16.1 0.00 0.00 0.00 87 1015.8
20260507085024 8 130 8.0 19.3 0.00 0.00 0.00 87 1015.8
20260507084539 8 141 8.0 19.3 0.00 0.00 0.00 87 1015.7
20260507084026 8 140 8.0 17.7 0.00 0.00 0.00 87 1015.8
20260507083522 8 133 6.4 17.7 0.00 0.00 0.00 88 1015.8
20260507083036 8 116 8.0 16.1 0.00 0.00 0.00 88 1015.7
20260507082522 8 180 6.4 20.9 0.00 0.00 0.00 88 1015.7
20260507082021 8 140 8.0 20.9 0.00 0.00 0.00 88 1015.7
20260507081542 8 120 8.0 20.9 0.00 0.00 0.00 88 1015.7
20260507081021 7 141 6.4 20.9 0.00 0.00 0.00 88 1015.6
20260507080523 7 131 9.7 20.9 0.00 0.00 0.00 88 1015.7
20260507080044 7 133 8.0 19.3 0.00 0.00 0.00 88 1015.7
20260507075522 7 143 6.4 16.1 0.00 0.00 0.00 88 1015.7
20260507075021 7 151 6.4 16.1 0.00 0.00 0.00 88 1015.7
20260507074547 7 151 4.8 20.9 0.00 0.00 0.00 88 1015.8
20260507074021 7 126 6.4 20.9 0.00 0.00 0.00 89 1015.7
20260507073525 7 161 6.4 20.9 0.00 0.00 0.00 89 1015.7
20260507073036 7 155 3.2 16.1 0.00 0.00 0.00 89 1015.7
20260507072522 7 132 6.4 17.7 0.00 0.00 0.00 89 1015.6
20260507072021 7 123 6.4 17.7 0.00 0.00 0.00 89 1015.7
20260507071543 7 125 6.4 17.7 0.00 0.00 0.00 89 1015.6
20260507071022 7 125 3.2 14.5 0.00 0.00 0.00 89 1015.6
20260507070522 7 125 3.2 14.5 0.00 0.00 0.00 89 1015.7
20260507070051 7 147 3.2 14.5 0.00 0.00 0.00 89 1015.6
20260507065522 7 118 6.4 14.5 0.00 0.00 0.00 89 1015.5
20260507065022 7 128 4.8 17.7 0.00 0.00 0.00 89 1015.6
20260507064547 7 135 3.2 17.7 0.00 0.00 0.00 89 1015.5
20260507064021 7 116 4.8 16.1 0.00 0.00 0.00 89 1015.6
20260507063522 7 125 6.4 16.1 0.00 0.00 0.00 89 1015.5
20260507063041 7 128 4.8 16.1 0.00 0.00 0.00 89 1015.5
20260507062522 7 133 8.0 16.1 0.00 0.00 0.00 89 1015.5
20260507062022 7 0 3.2 11.3 0.00 0.00 0.00 89 1015.5
20260507061538 7 129 4.8 11.3 0.00 0.00 0.00 89 1015.6
20260507061025 7 130 4.8 14.5 0.00 0.00 0.00 89 1015.5
20260507060521 7 112 3.2 14.5 0.00 0.00 0.00 89 1015.5
20260507060035 7 117 8.0 14.5 0.00 0.00 0.00 89 1015.4
20260507055522 7 129 4.8 14.5 0.00 0.00 0.00 89 1015.5
20260507055022 7 113 6.4 14.5 0.00 0.00 0.00 89 1015.5
20260507054541 7 165 4.8 12.9 0.00 0.00 0.00 89 1015.4
20260507054018 7 127 4.8 16.1 0.00 0.00 0.00 89 1015.4
20260507053518 7 135 4.8 16.1 0.00 0.00 0.00 89 1015.4
20260507053041 6 141 6.4 14.5 0.00 0.00 0.00 89 1015.3
20260507052518 6 130 6.4 14.5 0.00 0.00 0.00 89 1015.5
20260507052018 7 117 6.4 14.5 0.00 0.00 0.00 89 1015.4
20260507051542 6 124 6.4 14.5 0.00 0.00 0.00 89 1015.3
20260507051018 6 134 4.8 16.1 0.00 0.00 0.00 89 1015.4
20260507050518 6 118 4.8 16.1 0.00 0.00 0.00 89 1015.3
20260507050040 6 145 4.8 16.1 0.00 0.00 0.00 89 1015.3
20260507045518 6 116 4.8 14.5 0.00 0.00 0.00 89 1015.3
20260507045018 6 109 3.2 14.5 0.00 0.00 0.00 89 1015.3
20260507044542 6 104 4.8 12.9 0.00 0.00 0.00 89 1015.3
20260507044018 6 106 3.2 12.9 0.00 0.00 0.00 89 1015.3
20260507043520 6 106 4.8 12.9 0.00 0.00 0.00 89 1015.3
20260507043042 6 106 4.8 12.9 0.00 0.00 0.00 89 1015.3
20260507042520 6 109 4.8 12.9 0.00 0.00 0.00 89 1015.3
20260507042024 6 108 3.2 12.9 0.00 0.00 0.00 89 1015.3
20260507041545 6 108 6.4 12.9 0.00 0.00 0.00 89 1015.4
20260507041021 6 108 4.8 12.9 0.00 0.00 0.00 89 1015.3
20260507040518 6 108 3.2 16.1 0.00 0.00 0.00 89 1015.3
20260507040045 6 105 6.4 16.1 0.00 0.00 0.00 89 1015.4
20260507035520 6 106 3.2 14.5 0.00 0.00 0.00 88 1015.4
20260507035018 6 108 4.8 16.1 0.00 0.00 0.00 88 1015.4
20260507034542 6 107 6.4 16.1 0.00 0.00 0.00 89 1015.4
20260507034022 6 110 3.2 14.5 0.00 0.00 0.00 88 1015.3
20260507033519 6 116 4.8 14.5 0.00 0.00 0.00 88 1015.3
20260507033045 6 116 3.2 14.5 0.00 0.00 0.00 88 1015.3
20260507032520 6 106 3.2 14.5 0.00 0.00 0.00 88 1015.3
20260507032024 6 110 4.8 14.5 0.00 0.00 0.00 88 1015.3
20260507031554 6 114 3.2 14.5 0.00 0.00 0.00 88 1015.3
20260507031021 6 114 6.4 14.5 0.00 0.00 0.00 88 1015.4
20260507030519 6 116 4.8 16.1 0.00 0.00 0.00 88 1015.4
20260507030104 6 126 8.0 16.1 0.00 0.00 0.00 89 1015.3
20260507025518 6 115 6.4 16.1 0.00 0.00 0.00 89 1015.3
20260507025023 6 126 8.0 16.1 0.00 0.00 0.00 89 1015.5
20260507024601 6 112 6.4 16.1 0.00 0.00 0.00 89 1015.5
20260507024018 6 113 6.4 14.5 0.00 0.00 0.00 89 1015.4
20260507023519 6 114 4.8 14.5 0.00 0.00 0.00 89 1015.5
20260507023041 6 120 4.8 12.9 0.00 0.00 0.00 89 1015.5
20260507022520 6 126 3.2 16.1 0.00 0.00 0.00 88 1015.5
20260507022019 6 119 3.2 16.1 0.00 0.00 0.00 88 1015.5
20260507021552 6 122 4.8 12.9 0.00 0.00 0.00 88 1015.5
20260507021019 6 118 4.8 12.9 0.00 0.00 0.00 88 1015.5
20260507020520 6 180 3.2 12.9 0.00 0.00 0.00 88 1015.4
20260507020047 6 114 3.2 11.3 0.00 0.00 0.00 88 1015.5
20260507015518 6 0 4.8 11.3 0.00 0.00 0.00 88 1015.5
20260507015018 6 115 4.8 12.9 0.00 0.00 0.00 88 1015.6
20260507014552 6 115 3.2 12.9 0.00 0.00 0.00 88 1015.6
20260507014019 6 117 4.8 16.1 0.00 0.00 0.00 88 1015.6
20260507013518 6 119 6.4 16.1 0.00 0.00 0.00 88 1015.6
20260507013043 6 107 4.8 14.5 0.00 0.00 0.00 87 1015.6
20260507012521 6 106 3.2 14.5 0.00 0.00 0.00 87 1015.6
20260507012018 6 104 4.8 14.5 0.00 0.00 0.00 87 1015.6
20260507011547 6 104 6.4 14.5 0.00 0.00 0.00 87 1015.6
20260507011019 6 100 3.2 12.9 0.00 0.00 0.00 87 1015.7
20260507010519 6 102 3.2 12.9 0.00 0.00 0.00 87 1015.7
20260507010042 6 101 6.4 14.5 0.00 0.00 0.00 87 1015.7
20260507005519 6 103 4.8 14.5 0.00 0.00 0.00 87 1015.8
20260507005025 6 102 4.8 14.5 0.00 0.00 0.00 87 1015.8
20260507004535 6 102 4.8 11.3 0.00 0.00 0.00 86 1015.9
20260507004019 6 104 3.2 11.3 0.00 0.00 0.00 86 1015.9
20260507003519 7 103 4.8 9.7 0.00 0.00 0.00 86 1015.9
20260507003042 7 103 4.8 11.3 0.00 0.00 0.00 85 1015.9
20260507002521 7 103 4.8 12.9 0.00 0.00 0.00 85 1015.9
20260507002018 7 103 6.4 12.9 0.00 0.00 0.00 85 1016.0
20260507001541 7 104 4.8 14.5 0.00 0.00 0.00 85 1015.9
20260507001021 7 103 4.8 14.5 0.00 0.00 0.00 85 1016.0
20260507000521 7 104 4.8 12.9 0.00 0.00 0.00 85 1016.0
20260507000040 7 102 6.4 12.9 0.00 0.00 0.00 85 1015.9
20260506235522 7 104 6.4 12.9 0.00 0.00 0.00 85 1016.0
20260506235018 7 108 4.8 17.7 0.00 0.00 0.00 85 1015.9
20260506234605 7 120 6.4 20.9 0.00 0.00 0.00 85 1015.8
20260506234020 7 111 9.7 20.9 0.00 0.00 0.00 85 1015.9
20260506233519 7 105 9.7 19.3 0.00 0.00 0.00 86 1015.9
20260506233049 7 112 4.8 12.9 0.00 0.00 0.00 85 1015.9
20260506232518 7 114 6.4 12.9 0.00 0.00 0.00 85 1015.8
20260506232018 7 180 3.2 16.1 0.00 0.00 0.00 85 1015.9
20260506231546 7 180 6.4 16.1 0.00 0.00 0.00 85 1015.8
20260506231019 7 108 6.4 14.5 0.00 0.00 0.00 85 1015.7
20260506230521 7 107 6.4 14.5 0.00 0.00 0.00 84 1015.8
20260506230046 7 180 6.4 14.5 0.00 0.00 0.00 84 1015.8
20260506225518 7 111 3.2 11.3 0.00 0.00 0.00 84 1015.7
20260506225023 7 111 3.2 11.3 0.00 0.00 0.00 83 1015.7
20260506224541 7 110 1.6 8.0 0.00 0.00 0.00 83 1015.7
20260506224018 7 111 1.6 8.0 0.00 0.00 0.00 82 1015.6
20260506223519 7 110 3.2 8.0 0.00 0.00 0.00 82 1015.6
20260506223035 8 111 1.6 8.0 0.00 0.00 0.00 81 1015.6
20260506222519 8 111 1.6 8.0 0.00 0.00 0.00 81 1015.6
20260506222019 8 111 1.6 8.0 0.00 0.00 0.00 80 1015.6
20260506221535 8 111 1.6 6.4 0.00 0.00 0.00 80 1015.5
20260506221018 8 111 1.6 6.4 0.00 0.00 0.00 79 1015.6
20260506220519 8 111 3.2 8.0 0.00 0.00 0.00 78 1015.5
20260506220036 8 110 1.6 8.0 0.00 0.00 0.00 78 1015.4
20260506215518 8 111 1.6 8.0 0.00 0.00 0.00 78 1015.4
20260506215018 8 111 3.2 11.3 0.00 0.00 0.00 78 1015.4
20260506214546 9 112 3.2 11.3 0.00 0.00 0.00 77 1015.4
20260506214024 9 112 3.2 8.0 0.00 0.00 0.00 77 1015.4
20260506213522 9 112 3.2 8.0 0.00 0.00 0.00 77 1015.3
20260506213043 9 114 3.2 12.9 0.00 0.00 0.00 77 1015.3